Weather History for KBIL - January, 2014

Change the Weather History Date:

Tuesday, January 7, 2014

  Actual Average Record
Temperature  
Mean Temperature 30 °F 26 °F  
Max Temperature 35 °F 36 °F 60 °F (1954)
Min Temperature 25 °F 17 °F -30 °F (1937)
Degree Days  
Heating Degree Days 35 39  
Month to date heating degree days 295 273  
Since 1 July heating degree days 3220 3094  
Cooling Degree Days 0 0  
Month to date cooling degree days 0 0  
Year to date cooling degree days 0 0  
Moisture  
Dew Point 18 °F    
Average Humidity 64    
Maximum Humidity 78    
Minimum Humidity 49    
Precipitation  
Precipitation T in 0.02 in 0.40 in (1962)
Month to date precipitation 0.56 0.11  
Year to date precipitation 0.56 0.11  
Snow  
Snow T in 0.30 in 5.00 in (1962)
Month to date snowfall 9.3 2.0  
Since 1 July snowfall 44.3 21.9  
Snow Depth 4.00 in    
Sea Level Pressure  
Sea Level Pressure 30.05 in    
Wind  
Wind Speed 14 mph (SW)    
Max Wind Speed 26 mph    
Max Gust Speed 32 mph    
Visibility 10 miles    
Events Snow    
T = Trace of Precipitation, MM = Missing Value Source: NWS Daily Summary

Daily Weather History Graph

Daily Weather History Graph

Search for Another Location

Airport or City:

Trip Planner

Search our weather history database for the weather conditions in past years. The results will help you decide how hot, cold, wet, or windy it might be!

Date:

Astronomy

Jan. 07, 2014 Rise Set
Actual Time 7:54 AM MST 4:46 PM MST
Civil Twilight 7:20 AM MST 5:20 PM MST
Nautical Twilight 6:43 AM MST 5:57 PM MST
Astronomical Twilight 6:07 AM MST 6:33 PM MST
Moon 11:21 AM MST (1/7) No Moon Set
Length of Visible Light 9h 59m
Length of Day
8h 51m
Waxing Crescent, 46% of the Moon is Illuminated
Jan 7
Waxing Crescent
Jan 7
First Quarter
Jan 15
Full
Jan 23
Last Quarter
Jan 30
New

Hourly Weather History & Observations

Time (MST) Temp. Windchill Dew Point Humidity Pressure Visibility Wind Dir Wind Speed Gust Speed Precip Events Conditions
12:53 AM 27.0 °F 13.2 °F 10.0 °F 49% 30.08 in 10.0 mi WSW 20.7 mph - N/A   Overcast
1:53 AM 27.0 °F 12.5 °F 10.9 °F 51% 30.06 in 10.0 mi WSW 23.0 mph - N/A   Overcast
2:53 AM 28.0 °F 16.1 °F 12.0 °F 51% 30.09 in 10.0 mi SW 16.1 mph - N/A   Overcast
3:53 AM 28.0 °F 15.7 °F 12.9 °F 53% 30.08 in 10.0 mi SW 17.3 mph - N/A   Overcast
4:53 AM 28.9 °F 16.5 °F 12.9 °F 51% 30.07 in 10.0 mi SW 18.4 mph - N/A   Overcast
5:53 AM 28.9 °F 16.9 °F 14.0 °F 54% 30.07 in 10.0 mi SW 17.3 mph - N/A   Overcast
6:53 AM 30.0 °F 17.5 °F 14.0 °F 51% 30.06 in 10.0 mi WSW 19.6 mph - N/A   Overcast
7:53 AM 28.9 °F 17.3 °F 14.0 °F 54% 30.07 in 10.0 mi SW 16.1 mph - N/A   Overcast
8:53 AM 30.0 °F 19.5 °F 14.0 °F 51% 30.09 in 10.0 mi SW 13.8 mph - 0.00 in   Overcast
9:53 AM 30.0 °F 20.5 °F 16.0 °F 56% 30.10 in 10.0 mi WSW 11.5 mph - 0.00 in Snow Light Snow
10:53 AM 30.0 °F 20.0 °F 17.1 °F 59% 30.09 in 10.0 mi SW 12.7 mph - 0.00 in   Overcast
11:53 AM 30.0 °F 19.5 °F 21.0 °F 69% 30.06 in 10.0 mi SW 13.8 mph - 0.00 in   Overcast
12:53 PM 30.0 °F 21.7 °F 25.0 °F 82% 30.03 in 10.0 mi SW 9.2 mph - 0.00 in   Overcast
1:53 PM 33.1 °F 26.1 °F 21.9 °F 64% 30.02 in 10.0 mi SW 8.1 mph - N/A   Overcast
2:53 PM 35.1 °F 30.1 °F 24.1 °F 64% 30.01 in 10.0 mi SW 5.8 mph - N/A   Overcast
3:53 PM 33.1 °F 24.9 °F 23.0 °F 66% 30.03 in 10.0 mi SW 10.4 mph - N/A   Overcast
4:53 PM 35.1 °F 27.4 °F 21.9 °F 59% 30.03 in 10.0 mi WSW 10.4 mph - N/A   Overcast
5:53 PM 33.1 °F 24.9 °F 23.0 °F 66% 30.04 in 10.0 mi SW 10.4 mph - N/A   Overcast
6:53 PM 34.0 °F 24.6 °F 21.9 °F 61% 30.04 in 10.0 mi SW 13.8 mph - N/A   Overcast
7:53 PM 34.0 °F 24.6 °F 21.0 °F 59% 30.03 in 10.0 mi WSW 13.8 mph - N/A   Overcast
8:53 PM 33.1 °F 23.9 °F 21.9 °F 64% 30.04 in 10.0 mi WSW 12.7 mph - N/A   Overcast
9:53 PM 33.1 °F 23.9 °F 21.9 °F 64% 30.04 in 10.0 mi SW 12.7 mph - N/A   Overcast
10:53 PM 32.0 °F 23.0 °F 23.0 °F 69% 30.04 in 10.0 mi SW 11.5 mph - N/A   Overcast
11:53 PM 32.0 °F 22.5 °F 23.0 °F 69% 30.03 in 10.0 mi WSW 12.7 mph - N/A   Mostly Cloudy